South Bend, IN

3:12 PM EDT on April 25, 2017 (GMT -0400)
South Bend Regional

Weather History for KSBN - January, 2013

Change the Weather History Date:

Friday, January 11, 2013

  Actual Average Record
Temperature  
Mean Temperature 46 °F 24 °F  
Max Temperature 54 °F 31 °F 56 °F (1980)
Min Temperature 38 °F 18 °F -8 °F (1962)
Degree Days  
Heating Degree Days 19 41  
Month to date heating degree days 397 443  
Since 1 July heating degree days 2597 2834  
Cooling Degree Days 0 0  
Month to date cooling degree days 0 0  
Year to date cooling degree days 0 0  
Moisture  
Dew Point 45 °F    
Average Humidity 87    
Maximum Humidity 96    
Minimum Humidity 77    
Precipitation  
Precipitation 0.57 in 0.08 in 0.70 in (1895)
Month to date precipitation 0.76 0.91  
Year to date precipitation 0.76 0.91  
Snow  
Snow 0.00 in 0.70 in 6.60 in (1981)
Month to date snowfall 0.1 7.0  
Since 1 July snowfall 9.2 29.5  
Snow Depth 0.00 in    
Sea Level Pressure  
Sea Level Pressure 29.83 in    
Wind  
Wind Speed 13 mph (South)    
Max Wind Speed 25 mph    
Max Gust Speed 33 mph    
Visibility 8 miles    
Events Rain    
T = Trace of Precipitation, MM = Missing Value Source: NWS Daily Summary

Daily Weather History Graph

Daily Weather History Graph

Search for Another Location

Airport or City:

Trip Planner

Search our weather history database for the weather conditions in past years. The results will help you decide how hot, cold, wet, or windy it might be!

Date:

Astronomy

Jan. 11, 2013 Rise Set
Actual Time 8:11 AM EST 5:35 PM EST
Civil Twilight 7:40 AM EST 6:06 PM EST
Nautical Twilight 7:05 AM EST 6:41 PM EST
Astronomical Twilight 6:32 AM EST 7:14 PM EST
Moon 7:43 AM EST (1/11) 5:53 PM EST (1/11)
Length of Visible Light 10h 26m
Length of Day
9h 24m
Waning Crescent, 0% of the Moon is Illuminated
Jan 11
Waning Crescent
Jan 11
New
Jan 18
First Quarter
Jan 26
Full
Feb 3
Last Quarter

Hourly Weather History & Observations

Time (EST) Temp. Windchill Dew Point Humidity Pressure Visibility Wind Dir Wind Speed Gust Speed Precip Events Conditions
12:54 AM 39.0 °F 31.0 °F 37.0 °F 93% 30.03 in 4.0 mi SE 13.8 mph - 0.10 in Rain Light Rain
1:54 AM 39.9 °F 32.5 °F 37.9 °F 93% 29.97 in 6.0 mi SE 12.7 mph - 0.01 in   Overcast
2:20 AM 41.0 °F 34.3 °F 37.4 °F 87% 29.93 in 7.0 mi SE 11.5 mph 24.2 mph N/A   Overcast
2:54 AM 42.1 °F 34.5 °F 39.0 °F 89% 29.93 in 9.0 mi SE 15.0 mph - N/A   Overcast
3:28 AM 42.8 °F 36.2 °F 39.2 °F 87% 29.90 in 8.0 mi SSE 12.7 mph 21.9 mph 0.00 in   Overcast
3:54 AM 42.1 °F 34.2 °F 39.0 °F 89% 29.89 in 5.0 mi SE 16.1 mph 27.6 mph 0.01 in Rain Light Rain
4:30 AM 42.8 °F 35.1 °F 41.0 °F 93% 29.84 in 1.8 mi SE 16.1 mph - 0.18 in Rain Heavy Rain
4:47 AM 42.8 °F 36.2 °F 41.0 °F 93% 29.82 in 2.5 mi ESE 12.7 mph 28.8 mph 0.38 in Rain Rain
4:54 AM 42.1 °F 37.7 °F 41.0 °F 96% 29.84 in 2.0 mi SE 6.9 mph - 0.41 in Rain Rain
5:15 AM 44.6 °F 41.4 °F 42.8 °F 93% 29.83 in 4.0 mi Variable 5.8 mph - 0.02 in Rain Light Rain
5:54 AM 48.9 °F - 46.9 °F 93% 29.80 in 8.0 mi South 11.5 mph - 0.03 in Rain Light Rain
6:54 AM 50.0 °F - 48.0 °F 93% 29.76 in 9.0 mi SSE 11.5 mph 20.7 mph 0.00 in   Overcast
7:27 AM 50.0 °F - 48.2 °F 94% 29.76 in 9.0 mi South 12.7 mph 19.6 mph N/A   Mostly Cloudy
7:36 AM 50.0 °F - 48.2 °F 94% 29.76 in 10.0 mi South 10.4 mph 19.6 mph N/A   Mostly Cloudy
7:54 AM 50.0 °F - 48.2 °F 94% 29.76 in 10.0 mi South 10.4 mph - N/A   Overcast
8:54 AM 53.1 °F - 50.0 °F 89% 29.79 in 10.0 mi South 16.1 mph 23.0 mph 0.01 in   Overcast
9:51 AM 53.6 °F - 50.0 °F 88% 29.77 in 10.0 mi SSW 16.1 mph - 0.00 in   Overcast
9:54 AM 54.0 °F - 50.0 °F 86% 29.78 in 10.0 mi SSW 16.1 mph - 0.00 in   Overcast
10:54 AM 54.0 °F - 48.9 °F 83% 29.82 in 10.0 mi SW 17.3 mph 24.2 mph 0.01 in   Overcast
11:54 AM 51.1 °F - 48.0 °F 89% 29.82 in 10.0 mi SW 12.7 mph 23.0 mph N/A   Overcast
12:54 PM 51.8 °F - 46.4 °F 82% 29.80 in 10.0 mi SW 17.3 mph - N/A   Overcast
1:36 PM 50.0 °F - 46.4 °F 87% 29.80 in 10.0 mi SW 13.8 mph 25.3 mph N/A   Overcast
1:54 PM 50.0 °F - 46.0 °F 86% 29.82 in 10.0 mi SW 12.7 mph - N/A   Overcast
2:54 PM 50.0 °F - 46.0 °F 86% 29.83 in 10.0 mi SSW 17.3 mph 24.2 mph N/A   Overcast
3:54 PM 50.0 °F - 45.0 °F 83% 29.84 in 10.0 mi SW 12.7 mph - N/A   Overcast
4:54 PM 51.1 °F - 45.0 °F 80% 29.84 in 10.0 mi SSW 12.7 mph 20.7 mph N/A   Overcast
5:52 PM 50.0 °F - 44.6 °F 82% 29.82 in 10.0 mi South 8.1 mph - N/A   Scattered Clouds
5:54 PM 50.0 °F - 44.1 °F 80% 29.83 in 10.0 mi SSE 8.1 mph - N/A   Partly Cloudy
6:54 PM 48.9 °F - 44.1 °F 83% 29.84 in 10.0 mi South 10.4 mph - N/A   Clear
7:54 PM 50.0 °F - 45.0 °F 83% 29.81 in 10.0 mi South 10.4 mph - N/A   Clear
8:54 PM 51.1 °F - 46.0 °F 83% 29.82 in 10.0 mi South 13.8 mph - N/A   Clear
9:54 PM 51.1 °F - 46.0 °F 83% 29.81 in 10.0 mi SSW 15.0 mph 20.7 mph N/A   Clear
10:54 PM 51.1 °F - 46.0 °F 83% 29.80 in 10.0 mi SSW 13.8 mph - N/A   Clear
11:54 PM 52.0 °F - 46.0 °F 80% 29.79 in 10.0 mi SSW 18.4 mph - N/A   Clear